BEIDOU 5 (C06)

Last updated on Aug. 8, 2020, 5:33 a.m. UTC

1 36828U 10036A   20220.05274269 -.00000116  00000-0  10000-3 0  9991
2 36828  54.1685 182.5213 0101360 235.3839  32.6924  1.00301484 36752
UTC
Height (km)
Latitude
Longitude
Inclination
Orbital Period
UTC large
Height (km)
Speed (km/s)
/
Latitude / Longitude
Inclination (degrees)
Orbital Period (minutes)
Azimuth
Elevation
Range (km)
Doppler Factor
iOS Compass Heading
iOS Angle

Next 30 passes for location: Hong Kong

Rise time Rise Azimuth (degrees) Set time Set Azimuth (degrees) Duration Max altitude (degrees)

No matching passes for this satellites